QPF
0.01 0.00 0.00 0.00 0.00 0.00 0.00 0.00 0.00 0.00 0.00 0.00 0.00 0.00 0.00 0.00 0.00 0.00 0.00 0.00 0.00 0.00 0.00 0.00 0.00 0.00 0.00 0.00 0.00 0.00 0.00 0.00 0.00 0.00 0.00 0.00 0.00 0.00 0.00 0.00 0.00 0.00 0.00 0.00 0.00 0.00 0.00
0.01 0.01 0.00 0.00 0.00 0.00 0.00 0.00 0.00 0.01 0.01 0.01 0.00 0.00 0.00 0.00 0.00 0.00 0.00 0.00 0.00 0.00 0.00 0.00 0.00 0.00 0.00 0.00 0.00 0.00 0.00 0.00 0.00 0.00 0.00 0.00 0.00 0.00 0.00 0.00 0.00 0.00 0.00 0.00 0.00 0.00 0.00
0.10 0.05 0.04 0.10 0.06 0.05 0.06 0.05 0.05 0.05 0.03 0.01 0.00 0.00 0.00 0.00 0.00 0.00 0.00 0.00 0.00 0.00 0.00 0.00 0.00 0.00 0.00 0.00 0.00 0.00 0.00 0.00 0.00 0.00 0.00 0.00 0.00 0.00 0.00 0.00 0.00 0.00 0.00 0.00 0.00 0.00 0.00
0.15 0.07 0.09 0.12 0.18 0.29 0.27 0.19 0.17 0.17 0.12 0.04 0.01 0.00 0.00 0.00 0.00 0.00 0.00 0.00 0.00 0.00 0.00 0.00 0.00 0.00 0.00 0.00 0.00 0.00 0.00 0.00 0.00 0.00 0.00 0.00 0.00 0.00 0.00 0.00 0.00 0.00 0.00 0.00 0.00 0.00 0.00
0.15 0.14 0.16 0.18 0.19 0.19 0.29 0.35 0.29 0.20 0.12 0.06 0.01 0.00 0.00 0.00 0.00 0.00 0.00 0.00 0.00 0.00 0.00 0.00 0.00 0.00 0.00 0.00 0.00 0.00 0.00 0.00 0.00 0.00 0.00 0.00 0.00 0.00 0.00 0.00 0.00 0.00 0.00 0.00 0.00 0.00 0.00
0.12 0.12 0.11 0.14 0.17 0.20 0.20 0.20 0.23 0.21 0.18 0.13 0.07 0.03 0.01 0.00 0.00 0.00 0.00 0.00 0.00 0.00 0.00 0.00 0.00 0.00 0.00 0.00 0.00 0.00 0.00 0.00 0.00 0.00 0.00 0.00 0.00 0.00 0.00 0.00 0.00 0.00 0.00 0.00 0.00 0.00 0.00
0.14 0.16 0.15 0.10 0.11 0.13 0.15 0.17 0.20 0.19 0.16 0.12 0.08 0.04 0.01 0.00 0.00 0.00 0.00 0.00 0.00 0.00 0.00 0.00 0.00 0.00 0.00 0.00 0.00 0.00 0.00 0.00 0.00 0.00 0.00 0.00 0.00 0.00 0.00 0.00 0.00 0.00 0.00 0.00 0.00 0.00 0.00
0.13 0.10 0.15 0.19 0.09 0.09 0.10 0.11 0.12 0.12 0.14 0.15 0.10 0.06 0.02 0.00 0.00 0.00 0.00 0.00 0.00 0.00 0.00 0.00 0.00 0.00 0.00 0.00 0.00 0.00 0.00 0.00 0.00 0.00 0.00 0.00 0.00 0.00 0.00 0.00 0.00 0.00 0.00 0.00 0.00 0.00 0.00
0.07 0.10 0.07 0.10 0.12 0.12 0.07 0.05 0.05 0.06 0.07 0.07 0.06 0.04 0.02 0.00 0.00 0.00 0.00 0.00 0.00 0.00 0.00 0.00 0.00 0.00 0.00 0.00 0.00 0.00 0.00 0.00 0.00 0.00 0.00 0.00 0.00 0.00 0.00 0.00 0.00 0.00 0.00 0.00 0.00 0.00 0.00
0.06 0.09 0.08 0.06 0.03 0.09 0.15 0.06 0.03 0.04 0.04 0.03 0.03 0.02 0.01 0.00 0.00 0.00 0.00 0.00 0.00 0.00 0.00 0.00 0.00 0.00 0.00 0.00 0.00 0.00 0.00 0.00 0.00 0.00 0.00 0.00 0.00 0.00 0.00 0.00 0.00 0.00 0.00 0.00 0.00 0.00 0.00
0.01 0.06 0.08 0.06 0.05 0.03 0.05 0.04 0.03 0.01 0.00 0.00 0.01 0.01 0.00 0.00 0.00 0.00 0.00 0.00 0.00 0.00 0.00 0.00 0.00 0.00 0.00 0.00 0.00 0.00 0.00 0.00 0.00 0.00 0.00 0.00 0.00 0.00 0.00 0.00 0.00 0.00 0.00 0.00 0.00 0.00 0.00
0.00 0.00 0.02 0.07 0.06 0.02 0.01 0.03 0.07 0.04 0.00 0.00 0.00 0.00 0.00 0.00 0.00 0.00 0.00 0.00 0.00 0.00 0.00 0.00 0.00 0.00 0.00 0.00 0.00 0.00 0.00 0.00 0.00 0.00 0.00 0.00 0.00 0.00 0.00 0.00 0.00 0.00 0.00 0.00 0.00 0.00 0.00
0.00 0.00 0.00 0.01 0.03 0.04 0.01 0.00 0.05 0.13 0.04 0.00 0.00 0.00 0.00 0.00 0.00 0.00 0.00 0.00 0.00 0.00 0.00 0.00 0.00 0.00 0.00 0.00 0.00 0.00 0.00 0.00 0.00 0.00 0.00 0.00 0.00 0.00 0.00 0.00 0.00 0.00 0.00 0.00 0.00 0.00 0.00
0.00 0.00 0.00 0.00 0.02 0.02 0.03 0.02 0.01 0.03 0.06 0.02 0.00 0.00 0.00 0.00 0.00 0.00 0.00 0.01 0.01 0.00 0.00 0.00 0.00 0.00 0.00 0.00 0.00 0.00 0.00 0.00 0.00 0.00 0.00 0.00 0.00 0.00 0.00 0.00 0.00 0.00 0.00 0.00 0.00 0.00 0.00
0.00 0.00 0.00 0.00 0.00 0.02 0.05 0.07 0.06 0.04 0.02 0.05 0.04 0.00 0.00 0.00 0.00 0.00 0.01 0.03 0.00 0.00 0.00 0.01 0.00 0.00 0.00 0.00 0.00 0.00 0.00 0.00 0.00 0.00 0.00 0.00 0.00 0.00 0.00 0.00 0.00 0.00 0.00 0.00 0.00 0.00 0.00
0.00 0.00 0.00 0.00 0.00 0.00 0.01 0.04 0.08 0.08 0.09 0.08 0.03 0.02 0.00 0.00 0.00 0.00 0.01 0.00 0.00 0.00 0.00 0.00 0.00 0.00 0.00 0.00 0.00 0.00 0.00 0.00 0.00 0.00 0.00 0.00 0.00 0.00 0.00 0.00 0.00 0.00 0.00 0.00 0.00 0.00 0.00
0.00 0.00 0.00 0.00 0.00 0.00 0.00 0.00 0.03 0.07 0.10 0.24 0.21 0.07 0.01 0.02 0.02 0.03 0.01 0.00 0.00 0.00 0.00 0.00 0.00 0.00 0.00 0.00 0.00 0.00 0.00 0.01 0.00 0.00 0.00 0.00 0.00 0.00 0.00 0.00 0.00 0.00 0.00 0.00 0.00 0.00 0.00
0.00 0.00 0.00 0.00 0.00 0.00 0.00 0.00 0.01 0.03 0.09 0.15 0.32 0.22 0.01 0.07 0.32 0.06 0.00 0.00 0.00 0.00 0.00 0.00 0.00 0.00 0.00 0.00 0.00 0.00 0.00 0.00 0.00 0.00 0.00 0.00 0.00 0.00 0.00 0.00 0.00 0.00 0.00 0.00 0.00 0.00 0.00
0.00 0.00 0.00 0.00 0.00 0.00 0.00 0.00 0.00 0.03 0.08 0.14 0.25 0.13 0.03 0.03 0.25 0.07 0.00 0.00 0.00 0.00 0.00 0.00 0.00 0.00 0.00 0.00 0.00 0.00 0.00 0.00 0.00 0.00 0.00 0.00 0.01 0.00 0.00 0.00 0.00 0.01 0.01 0.01 0.00 0.00 0.00
0.00 0.00 0.00 0.00 0.00 0.00 0.00 0.00 0.00 0.01 0.07 0.19 0.27 0.14 0.25 0.17 0.03 0.01 0.00 0.00 0.00 0.00 0.00 0.00 0.00 0.00 0.00 0.00 0.00 0.00 0.00 0.00 0.00 0.00 0.00 0.00 0.00 0.00 0.00 0.01 0.01 0.02 0.01 0.01 0.00 0.00 0.00
0.00 0.00 0.00 0.00 0.00 0.00 0.00 0.00 0.00 0.00 0.03 0.16 0.55 0.39 0.13 0.32 0.07 0.00 0.00 0.00 0.00 0.00 0.00 0.00 0.00 0.00 0.00 0.00 0.00 0.00 0.00 0.00 0.00 0.00 0.00 0.00 0.00 0.00 0.00 0.00 0.00 0.01 0.02 0.01 0.00 0.00 0.00
0.00 0.00 0.00 0.00 0.00 0.00 0.01 0.00 0.00 0.00 0.03 0.14 0.45 0.32 0.17 0.09 0.01 0.00 0.00 0.00 0.00 0.00 0.00 0.00 0.00 0.00 0.00 0.00 0.00 0.00 0.00 0.00 0.00 0.00 0.00 0.00 0.00 0.00 0.00 0.00 0.00 0.00 0.00 0.00 0.00 0.00 0.00
0.00 0.00 0.00 0.00 0.00 0.00 0.01 0.01 0.00 0.00 0.04 0.11 0.23 0.32 0.22 0.10 0.06 0.03 0.00 0.00 0.00 0.00 0.00 0.00 0.00 0.00 0.00 0.00 0.00 0.00 0.00 0.00 0.00 0.00 0.00 0.00 0.00 0.01 0.00 0.00 0.00 0.00 0.00 0.00 0.00 0.00 0.00
0.00 0.00 0.00 0.01 0.01 0.00 0.00 0.01 0.03 0.04 0.05 0.07 0.13 0.19 0.27 0.25 0.07 0.05 0.00 0.00 0.00 0.00 0.00 0.00 0.00 0.00 0.00 0.00 0.00 0.00 0.00 0.00 0.00 0.00 0.00 0.00 0.00 0.01 0.02 0.01 0.04 0.00 0.00 0.00 0.00 0.00 0.00
0.00 0.00 0.00 0.00 0.01 0.01 0.00 0.00 0.01 0.04 0.10 0.09 0.09 0.15 0.24 0.25 0.16 0.02 0.00 0.00 0.00 0.00 0.00 0.00 0.01 0.00 0.00 0.00 0.00 0.00 0.00 0.00 0.00 0.00 0.00 0.00 0.00 0.01 0.00 0.00 0.00 0.00 0.00 0.00 0.00 0.00 0.00
0.01 0.01 0.01 0.01 0.01 0.01 0.01 0.00 0.04 0.06 0.10 0.09 0.09 0.18 0.20 0.16 0.14 0.04 0.00 0.00 0.00 0.00 0.00 0.01 0.00 0.00 0.01 0.00 0.00 0.00 0.00 0.00 0.00 0.00 0.00 0.00 0.00 0.01 0.00 0.00 0.00 0.00 0.00 0.00 0.00 0.00 0.00
0.01 0.02 0.02 0.02 0.01 0.01 0.01 0.01 0.04 0.15 0.16 0.11 0.09 0.14 0.20 0.17 0.07 0.04 0.10 0.02 0.00 0.00 0.01 0.01 0.00 0.00 0.00 0.01 0.00 0.00 0.00 0.00 0.00 0.00 0.00 0.00 0.00 0.00 0.00 0.00 0.00 0.00 0.00 0.00 0.00 0.00 0.00
0.01 0.01 0.01 0.01 0.01 0.01 0.01 0.01 0.01 0.10 0.16 0.21 0.14 0.20 0.21 0.13 0.13 0.08 0.11 0.07 0.01 0.01 0.01 0.03 0.03 0.00 0.00 0.00 0.00 0.00 0.00 0.00 0.00 0.00 0.00 0.00 0.00 0.00 0.00 0.01 0.01 0.00 0.00 0.01 0.01 0.01 0.00
0.01 0.00 0.00 0.01 0.01 0.01 0.01 0.02 0.01 0.04 0.10 0.15 0.16 0.17 0.20 0.07 0.09 0.11 0.06 0.04 0.01 0.01 0.00 0.01 0.01 0.00 0.00 0.00 0.00 0.00 0.00 0.00 0.00 0.00 0.00 0.00 0.00 0.00 0.01 0.00 0.00 0.01 0.00 0.00 0.01 0.00 0.00
MSLP
1017.04 1017.21 1017.40 1017.61 1017.96 1018.30 1018.53 1019.03 1019.29 1019.46 1019.74 1020.15 1020.23 1020.38 1020.57 1020.64 1020.63 1020.71 1020.68 1020.17 1020.32 1019.98 1019.68 1019.42 1019.01 1018.33 1017.54 1016.73 1014.79 1012.80 1012.92 1013.01 1013.19 1013.13 1013.06 1013.25 1013.20 1012.77 1012.46 1011.91 1011.52 1011.27 1011.00 1010.59 1010.08 1009.93 1010.01
1016.86 1016.82 1016.78 1016.83 1017.19 1017.57 1017.88 1018.42 1018.72 1018.96 1019.37 1019.83 1020.03 1020.43 1020.52 1020.79 1020.84 1020.82 1020.61 1020.21 1020.14 1020.08 1019.65 1019.47 1019.14 1018.59 1018.20 1016.40 1013.14 1012.70 1012.96 1012.88 1013.07 1013.03 1012.90 1013.13 1013.15 1012.71 1012.53 1012.10 1011.84 1011.71 1011.33 1010.85 1010.35 1010.17 1010.17
1016.87 1016.67 1016.21 1016.17 1016.66 1016.91 1017.17 1017.66 1018.15 1018.69 1019.19 1019.76 1019.84 1020.28 1020.34 1021.04 1020.77 1020.91 1020.53 1020.23 1020.12 1019.88 1019.53 1019.48 1019.47 1018.85 1018.26 1014.88 1013.10 1013.26 1013.10 1012.79 1012.81 1012.70 1012.81 1012.92 1013.04 1012.80 1012.71 1012.32 1011.95 1011.52 1011.76 1011.04 1010.12 1010.06 1010.05
1016.88 1017.07 1016.87 1016.60 1016.50 1017.09 1017.38 1017.57 1018.20 1018.91 1019.65 1020.08 1020.35 1020.19 1020.25 1020.80 1020.71 1020.78 1020.30 1020.04 1020.08 1019.78 1019.32 1019.27 1019.38 1019.14 1016.78 1013.56 1013.11 1013.08 1012.56 1012.35 1012.43 1012.33 1012.60 1012.73 1012.82 1012.88 1012.95 1012.59 1012.26 1012.10 1012.13 1012.02 1010.28 1010.00 1009.63
1016.88 1017.07 1017.36 1017.55 1017.64 1018.07 1018.36 1018.08 1018.33 1018.68 1019.64 1019.86 1020.15 1020.52 1020.05 1020.39 1020.43 1020.25 1020.11 1019.53 1019.35 1019.11 1019.11 1019.16 1019.05 1018.99 1015.77 1013.32 1013.01 1012.01 1012.10 1012.26 1012.32 1012.32 1012.36 1012.63 1012.96 1013.37 1013.21 1013.35 1013.38 1012.98 1012.81 1012.35 1011.24 1010.14 1009.79
1017.01 1016.88 1017.45 1017.59 1018.01 1018.42 1018.06 1018.71 1019.14 1019.29 1018.83 1019.96 1019.69 1020.29 1019.72 1020.42 1020.17 1019.90 1019.72 1018.84 1018.32 1018.72 1018.53 1018.77 1018.64 1018.40 1015.16 1013.03 1012.06 1011.88 1011.63 1011.87 1012.17 1012.40 1012.72 1013.34 1013.58 1013.93 1013.98 1013.84 1013.48 1013.15 1012.89 1012.22 1011.71 1010.45 1010.07
1016.68 1016.85 1017.00 1017.12 1017.78 1018.18 1018.47 1018.61 1018.94 1019.65 1019.40 1019.70 1019.63 1020.43 1020.00 1020.44 1020.00 1019.67 1019.47 1018.78 1018.50 1018.84 1018.52 1017.30 1016.65 1015.34 1013.87 1012.60 1011.85 1011.86 1011.79 1011.79 1012.19 1012.64 1013.30 1013.84 1014.51 1013.51 1013.10 1012.96 1012.52 1012.33 1012.55 1012.33 1011.54 1010.89 1010.49
1016.39 1016.72 1016.79 1016.94 1017.09 1017.89 1018.17 1018.29 1018.55 1019.35 1019.53 1019.72 1020.15 1019.96 1020.09 1020.16 1019.66 1019.84 1019.85 1019.13 1018.43 1018.61 1017.36 1016.09 1015.51 1014.97 1013.64 1013.12 1013.03 1011.99 1011.91 1012.31 1012.36 1012.78 1013.47 1014.19 1013.97 1012.37 1012.67 1012.39 1012.43 1012.30 1012.13 1011.94 1011.46 1010.92 1010.92
1015.91 1016.37 1016.68 1016.63 1016.83 1017.22 1017.84 1018.39 1018.53 1018.61 1019.24 1019.79 1020.01 1020.14 1020.17 1020.06 1019.64 1019.82 1019.35 1018.63 1017.78 1017.77 1017.39 1014.87 1013.57 1012.74 1012.06 1012.42 1011.91 1011.79 1012.09 1012.09 1012.30 1012.95 1013.23 1013.53 1012.89 1012.04 1012.25 1012.02 1011.83 1011.61 1011.61 1011.57 1011.54 1011.40 1011.19
1015.81 1016.00 1016.34 1016.53 1016.54 1017.15 1017.24 1017.73 1018.31 1018.83 1018.73 1019.30 1020.00 1020.18 1019.88 1019.91 1019.97 1019.49 1019.06 1018.25 1017.90 1017.77 1017.47 1013.78 1012.06 1010.80 1010.45 1010.81 1010.62 1010.45 1010.90 1011.87 1012.45 1012.31 1013.04 1012.96 1012.43 1012.13 1011.80 1011.52 1011.13 1010.81 1010.80 1011.06 1011.67 1012.12 1012.55
1015.67 1015.90 1016.11 1016.26 1016.44 1016.95 1017.12 1017.40 1017.84 1018.28 1018.76 1019.16 1019.56 1019.79 1019.96 1019.88 1020.04 1019.39 1018.94 1018.27 1017.95 1018.07 1016.91 1011.69 1010.37 1010.08 1009.78 1010.44 1009.98 1009.86 1010.25 1011.28 1011.63 1011.82 1012.46 1011.74 1011.48 1011.46 1011.22 1010.74 1010.60 1010.41 1010.44 1011.04 1011.80 1012.53 1013.12
1015.59 1015.77 1016.02 1015.96 1016.31 1016.44 1016.97 1017.17 1017.33 1017.78 1018.41 1018.88 1018.94 1019.58 1019.32 1020.08 1019.86 1019.14 1018.80 1018.49 1018.34 1018.46 1015.38 1011.46 1010.04 1010.03 1010.52 1010.39 1010.19 1010.12 1010.53 1011.13 1011.59 1011.71 1011.90 1011.64 1011.24 1011.23 1010.76 1010.40 1010.40 1010.43 1011.10 1011.90 1012.67 1013.38 1013.58
1015.79 1015.72 1015.85 1015.98 1016.21 1016.32 1016.65 1016.79 1017.18 1017.26 1017.72 1018.38 1018.62 1019.35 1019.70 1019.31 1019.58 1018.76 1018.40 1018.94 1019.16 1017.31 1013.42 1011.91 1010.68 1010.53 1010.41 1010.26 1010.35 1010.56 1011.25 1011.53 1011.60 1012.12 1011.90 1011.76 1011.05 1010.57 1010.44 1010.49 1010.50 1010.88 1011.80 1013.33 1014.07 1014.54 1013.58
1015.91 1015.92 1015.77 1015.90 1016.09 1016.11 1016.46 1016.71 1016.77 1017.16 1017.60 1017.96 1018.57 1019.10 1019.26 1019.50 1019.23 1019.00 1018.71 1019.29 1018.58 1015.06 1013.68 1012.39 1011.11 1010.88 1010.72 1010.36 1010.64 1010.98 1011.27 1011.43 1011.74 1012.15 1012.29 1011.71 1010.44 1009.54 1009.24 1009.32 1009.94 1010.80 1011.43 1012.95 1014.01 1014.65 1013.86
1015.95 1015.87 1015.81 1016.00 1015.96 1016.03 1016.04 1016.54 1016.63 1016.84 1017.32 1017.93 1018.74 1019.15 1019.32 1019.38 1019.32 1019.18 1019.72 1019.16 1015.91 1014.59 1013.45 1013.26 1011.73 1011.37 1011.02 1010.41 1010.50 1010.88 1010.96 1010.89 1010.96 1011.64 1012.17 1011.38 1010.04 1008.69 1008.30 1008.44 1009.28 1010.34 1011.06 1011.69 1013.34 1014.63 1014.63
1015.97 1016.04 1015.96 1016.02 1016.01 1016.11 1016.06 1016.15 1016.34 1016.71 1016.98 1017.67 1018.47 1018.76 1018.78 1018.78 1018.92 1019.34 1019.75 1017.44 1016.02 1014.51 1013.69 1013.58 1012.96 1011.89 1011.52 1011.08 1010.71 1010.68 1010.89 1010.75 1010.60 1010.72 1010.93 1010.67 1010.01 1009.30 1008.50 1008.19 1008.89 1009.61 1010.63 1011.98 1013.12 1014.54 1014.83
1015.94 1015.92 1015.98 1015.97 1016.02 1015.92 1015.99 1016.14 1016.21 1016.51 1016.60 1017.06 1017.86 1018.04 1017.63 1018.42 1019.01 1019.48 1018.74 1017.08 1015.82 1014.98 1014.76 1014.14 1013.56 1013.17 1012.71 1012.15 1011.67 1011.20 1011.09 1011.09 1011.30 1010.90 1010.73 1011.07 1010.91 1010.18 1009.27 1009.57 1009.92 1010.54 1011.40 1012.18 1012.74 1013.35 1014.20
1015.70 1015.68 1015.82 1015.72 1015.73 1015.59 1015.55 1015.94 1016.05 1016.12 1016.39 1016.39 1017.04 1017.83 1017.46 1017.81 1018.90 1018.75 1017.32 1016.59 1015.76 1014.91 1014.73 1014.61 1013.78 1013.50 1013.38 1013.07 1012.52 1011.98 1011.82 1012.04 1011.81 1011.66 1011.57 1011.80 1011.76 1011.50 1010.77 1010.54 1010.51 1011.08 1012.57 1013.62 1014.10 1014.40 1013.96
1015.51 1015.32 1015.52 1015.47 1015.54 1015.49 1015.58 1015.62 1015.87 1015.98 1015.89 1015.98 1016.47 1017.14 1017.18 1017.28 1017.46 1017.67 1016.93 1016.62 1015.89 1015.21 1014.73 1014.47 1013.78 1013.47 1013.50 1013.69 1013.60 1012.57 1012.39 1012.15 1011.80 1011.77 1012.40 1012.51 1013.19 1012.58 1011.90 1011.34 1011.33 1012.72 1013.58 1014.63 1014.58 1014.58 1014.19
1015.19 1015.03 1015.38 1015.19 1015.23 1015.29 1015.30 1015.35 1015.46 1015.63 1015.81 1016.01 1016.46 1016.56 1016.77 1016.65 1016.32 1015.97 1016.07 1016.25 1015.41 1014.88 1015.00 1014.56 1014.26 1013.95 1013.66 1013.52 1013.52 1013.42 1013.13 1012.80 1012.25 1012.40 1012.71 1012.59 1013.10 1013.39 1013.36 1013.15 1013.45 1013.87 1014.30 1014.15 1014.27 1014.50 1014.15
1014.78 1014.78 1014.78 1014.82 1014.92 1014.78 1014.97 1015.07 1015.23 1015.29 1015.70 1016.01 1015.96 1015.23 1014.63 1015.54 1015.39 1014.80 1015.17 1015.07 1014.84 1014.62 1014.59 1014.34 1014.00 1013.89 1013.73 1013.38 1013.29 1013.19 1013.20 1013.36 1012.89 1012.89 1013.41 1013.35 1013.75 1014.15 1013.90 1013.75 1013.58 1013.74 1013.91 1013.61 1013.75 1013.76 1013.61
1014.28 1014.30 1014.34 1014.36 1014.36 1014.58 1014.67 1014.80 1014.91 1015.12 1015.24 1015.59 1015.06 1015.51 1014.84 1014.42 1014.18 1014.77 1014.83 1014.19 1013.74 1014.01 1013.95 1013.69 1013.83 1013.32 1013.25 1013.27 1013.20 1013.19 1013.00 1012.99 1012.75 1013.06 1013.50 1014.09 1014.48 1014.79 1014.65 1014.35 1014.16 1013.73 1013.05 1012.83 1012.68 1012.54 1012.52
1013.71 1013.76 1013.79 1013.84 1013.98 1014.19 1014.33 1014.47 1014.46 1014.57 1014.91 1014.91 1015.10 1015.19 1014.92 1013.71 1013.68 1013.49 1013.32 1012.33 1012.51 1013.62 1013.10 1012.78 1012.78 1013.04 1012.93 1012.80 1012.93 1013.04 1012.95 1012.95 1013.02 1013.41 1014.01 1014.75 1015.22 1015.68 1015.39 1015.07 1014.70 1013.99 1012.22 1012.19 1012.02 1012.04 1011.81
1013.03 1013.09 1013.19 1013.27 1013.38 1013.57 1013.70 1013.80 1013.94 1013.97 1014.11 1014.60 1015.27 1015.02 1015.00 1013.89 1013.11 1012.53 1012.21 1012.17 1012.48 1012.21 1012.44 1012.00 1011.97 1012.46 1012.55 1012.69 1013.24 1013.52 1013.48 1013.45 1013.52 1013.69 1014.18 1015.06 1015.87 1016.37 1016.40 1016.16 1015.38 1012.78 1012.18 1011.86 1011.56 1011.49 1011.47
1012.39 1012.44 1012.56 1012.65 1012.79 1012.96 1013.20 1013.35 1013.42 1013.44 1013.41 1014.07 1014.28 1014.64 1014.52 1013.51 1012.51 1011.88 1011.78 1011.23 1011.73 1012.04 1012.24 1012.12 1012.12 1011.98 1012.41 1013.29 1014.55 1014.76 1014.81 1014.45 1014.00 1013.96 1014.28 1014.87 1015.89 1016.82 1016.98 1016.39 1015.01 1013.25 1011.65 1011.84 1011.84 1011.11 1011.43
1011.50 1011.66 1011.79 1012.02 1012.26 1012.43 1012.62 1012.81 1012.86 1012.84 1012.97 1013.52 1013.54 1013.98 1014.45 1013.78 1011.75 1011.36 1010.94 1010.62 1011.09 1011.45 1012.15 1012.10 1012.31 1012.20 1012.43 1014.45 1015.65 1016.08 1015.63 1015.06 1014.80 1014.29 1014.00 1014.84 1015.60 1016.75 1016.91 1016.35 1015.10 1011.97 1011.66 1011.48 1011.84 1011.72 1011.44
1010.77 1010.76 1011.08 1011.33 1011.61 1011.86 1012.04 1012.27 1012.43 1012.41 1012.70 1012.82 1013.04 1013.18 1013.78 1013.15 1011.39 1010.70 1010.61 1010.35 1010.23 1010.89 1011.52 1012.29 1012.55 1013.27 1013.45 1015.61 1016.57 1016.71 1016.35 1015.63 1015.48 1015.03 1015.10 1015.61 1016.06 1016.53 1016.41 1016.20 1014.57 1012.56 1012.05 1011.92 1012.54 1011.54 1011.75
1009.71 1009.97 1010.21 1010.68 1011.00 1011.28 1011.54 1011.76 1011.94 1011.89 1012.17 1012.22 1012.30 1012.67 1012.93 1012.57 1011.83 1010.90 1009.99 1009.88 1009.45 1009.74 1010.97 1012.27 1013.11 1013.84 1014.80 1015.77 1016.66 1016.81 1016.89 1016.19 1015.93 1015.35 1015.23 1015.65 1016.10 1016.08 1015.87 1015.47 1014.40 1012.60 1012.11 1012.36 1012.56 1012.19 1011.94
1008.28 1009.00 1009.36 1009.91 1010.41 1010.77 1011.04 1011.27 1011.47 1011.50 1011.73 1011.95 1012.07 1012.21 1012.45 1012.27 1011.53 1010.80 1009.98 1009.69 1008.91 1008.65 1010.11 1011.88 1012.10 1012.80 1013.43 1014.85 1016.26 1016.55 1016.98 1016.75 1016.16 1016.13 1015.16 1015.28 1014.88 1015.20 1015.00 1013.80 1012.92 1012.50 1012.49 1012.42 1012.26 1011.98 1011.92
Thickness
5620 5622 5624 5625 5624 5624 5625 5622 5622 5623 5623 5622 5625 5627 5627 5628 5631 5632 5635 5640 5642 5647 5651 5654 5658 5666 5674 5676 5686 5712 5712 5713 5711 5711 5708 5703 5698 5701 5695 5702 5707 5709 5712 5717 5719 5723 5721
5611 5615 5616 5619 5618 5616 5616 5613 5613 5614 5614 5612 5614 5614 5616 5616 5618 5621 5625 5630 5633 5636 5642 5643 5647 5654 5658 5661 5702 5704 5705 5707 5704 5703 5701 5700 5694 5700 5696 5697 5697 5702 5705 5706 5711 5713 5713
5599 5604 5609 5611 5611 5610 5611 5610 5608 5607 5606 5603 5605 5604 5608 5603 5609 5609 5615 5620 5622 5626 5631 5632 5633 5641 5645 5666 5692 5693 5695 5699 5699 5699 5693 5696 5693 5691 5692 5688 5701 5702 5689 5697 5707 5704 5705
5585 5587 5592 5599 5600 5600 5600 5600 5598 5595 5592 5591 5591 5595 5598 5595 5599 5600 5608 5612 5613 5617 5622 5623 5624 5629 5646 5677 5682 5685 5693 5691 5693 5695 5691 5692 5691 5686 5685 5691 5689 5688 5685 5668 5698 5702 5704
5572 5574 5576 5578 5580 5580 5581 5586 5587 5586 5580 5581 5581 5580 5588 5587 5590 5594 5598 5606 5609 5613 5614 5616 5618 5620 5644 5671 5670 5685 5686 5680 5683 5686 5688 5686 5681 5669 5677 5666 5658 5667 5652 5657 5674 5696 5697
5558 5564 5563 5565 5565 5564 5570 5568 5569 5570 5576 5569 5572 5569 5579 5575 5580 5586 5591 5601 5607 5608 5609 5611 5612 5614 5640 5659 5672 5677 5681 5680 5675 5675 5671 5665 5655 5648 5651 5648 5642 5648 5651 5659 5661 5686 5686
5545 5548 5550 5554 5552 5551 5552 5555 5557 5554 5559 5559 5562 5560 5566 5565 5571 5576 5583 5590 5599 5597 5600 5616 5619 5631 5645 5658 5668 5667 5669 5669 5668 5663 5646 5646 5632 5640 5652 5654 5662 5664 5656 5650 5663 5676 5677
5531 5533 5537 5540 5543 5539 5541 5543 5545 5543 5545 5549 5548 5552 5554 5555 5563 5565 5567 5577 5586 5587 5595 5615 5619 5623 5639 5640 5633 5652 5661 5648 5648 5641 5642 5634 5627 5657 5654 5657 5654 5651 5646 5646 5657 5669 5664
5520 5521 5522 5526 5528 5531 5529 5528 5532 5535 5534 5534 5535 5537 5541 5545 5551 5555 5561 5570 5579 5579 5579 5611 5624 5629 5640 5633 5634 5640 5644 5643 5640 5632 5634 5624 5638 5655 5649 5648 5646 5648 5641 5643 5644 5653 5652
5504 5507 5509 5512 5516 5512 5518 5521 5519 5518 5524 5523 5521 5522 5529 5533 5537 5545 5550 5560 5564 5568 5550 5602 5617 5628 5637 5637 5631 5650 5645 5635 5626 5628 5628 5624 5641 5640 5640 5638 5644 5635 5649 5647 5640 5628 5612
5489 5492 5493 5496 5501 5499 5502 5508 5507 5507 5508 5509 5506 5509 5511 5515 5521 5532 5538 5546 5550 5550 5545 5611 5615 5627 5631 5623 5631 5634 5639 5623 5619 5626 5623 5626 5635 5629 5626 5633 5640 5636 5647 5637 5630 5613 5613
5472 5475 5477 5483 5483 5486 5486 5490 5494 5494 5495 5495 5497 5496 5502 5500 5508 5518 5522 5528 5537 5526 5526 5591 5604 5602 5601 5608 5614 5621 5616 5619 5619 5611 5615 5617 5631 5622 5627 5634 5631 5634 5621 5613 5607 5597 5583
5454 5458 5459 5463 5467 5471 5474 5476 5477 5482 5483 5481 5483 5481 5484 5492 5495 5503 5511 5509 5499 5512 5575 5577 5585 5590 5592 5594 5598 5602 5595 5590 5591 5584 5588 5604 5610 5620 5621 5613 5619 5613 5597 5571 5565 5559 5579
5434 5439 5445 5448 5451 5457 5460 5463 5466 5466 5468 5469 5465 5465 5469 5471 5482 5485 5494 5489 5488 5546 5547 5563 5577 5581 5579 5587 5586 5583 5583 5578 5583 5582 5578 5574 5587 5610 5621 5614 5604 5596 5593 5561 5556 5554 5573
5416 5422 5427 5430 5436 5440 5445 5447 5451 5455 5455 5453 5449 5452 5456 5456 5460 5465 5463 5473 5517 5536 5538 5535 5556 5559 5568 5580 5580 5575 5576 5576 5579 5575 5567 5572 5585 5616 5618 5622 5612 5593 5579 5589 5564 5557 5553
5396 5401 5408 5413 5417 5422 5427 5432 5437 5438 5440 5438 5436 5437 5445 5443 5447 5446 5445 5484 5508 5524 5518 5521 5529 5544 5545 5554 5559 5562 5560 5574 5575 5578 5580 5578 5576 5594 5604 5608 5603 5589 5589 5557 5539 5540 5534
5377 5382 5388 5394 5399 5406 5412 5417 5421 5426 5430 5429 5423 5425 5443 5431 5429 5424 5438 5470 5494 5501 5491 5503 5512 5517 5527 5529 5535 5542 5539 5551 5552 5559 5565 5563 5561 5570 5586 5573 5572 5570 5560 5557 5550 5539 5529
5362 5367 5371 5377 5383 5391 5399 5403 5408 5415 5419 5421 5416 5410 5425 5421 5411 5413 5441 5466 5484 5489 5480 5490 5502 5507 5511 5515 5519 5525 5528 5530 5538 5540 5538 5541 5543 5540 5556 5563 5567 5557 5541 5535 5518 5522 5522
5348 5353 5357 5362 5368 5374 5381 5388 5393 5399 5405 5411 5405 5407 5411 5414 5411 5409 5433 5450 5460 5472 5469 5482 5491 5500 5504 5499 5499 5512 5517 5523 5532 5528 5523 5527 5505 5518 5535 5550 5546 5522 5517 5516 5521 5512 5514
5335 5340 5342 5347 5351 5358 5365 5371 5377 5383 5388 5392 5388 5397 5393 5403 5413 5424 5426 5432 5446 5459 5459 5466 5475 5480 5488 5491 5493 5493 5499 5503 5515 5516 5516 5520 5513 5513 5514 5519 5516 5507 5506 5515 5513 5496 5508
5327 5328 5331 5334 5338 5344 5349 5356 5361 5368 5372 5373 5372 5390 5406 5396 5410 5423 5426 5434 5438 5446 5455 5458 5461 5466 5472 5479 5485 5485 5491 5489 5502 5505 5502 5500 5494 5498 5509 5514 5512 5500 5502 5511 5509 5504 5491
5315 5317 5319 5323 5327 5330 5335 5340 5346 5352 5355 5359 5368 5375 5388 5400 5415 5412 5413 5427 5441 5445 5446 5450 5443 5461 5463 5467 5474 5477 5485 5484 5491 5492 5490 5484 5473 5481 5487 5498 5497 5494 5508 5509 5510 5509 5499
5303 5304 5306 5309 5312 5316 5321 5326 5332 5336 5338 5346 5353 5362 5376 5400 5400 5406 5414 5440 5444 5435 5441 5449 5446 5448 5450 5464 5465 5471 5473 5474 5479 5481 5468 5466 5454 5452 5469 5475 5473 5470 5504 5502 5502 5499 5495
5300 5298 5297 5298 5300 5303 5308 5314 5318 5324 5328 5335 5340 5354 5361 5382 5392 5404 5423 5432 5430 5438 5436 5448 5446 5443 5455 5454 5454 5456 5461 5466 5466 5466 5462 5447 5442 5434 5444 5440 5439 5484 5495 5496 5492 5493 5492
5298 5296 5295 5293 5292 5293 5295 5299 5306 5312 5319 5324 5334 5341 5349 5372 5390 5403 5410 5426 5427 5430 5430 5432 5437 5445 5445 5444 5419 5426 5415 5441 5450 5455 5456 5450 5433 5422 5423 5429 5446 5472 5487 5469 5475 5480 5484
5296 5294 5293 5290 5288 5286 5287 5290 5296 5303 5309 5315 5327 5332 5334 5354 5381 5398 5409 5422 5414 5418 5419 5426 5428 5431 5437 5412 5410 5400 5420 5433 5426 5450 5456 5447 5432 5412 5398 5414 5389 5477 5480 5478 5468 5447 5476
5292 5291 5289 5287 5284 5282 5282 5283 5288 5297 5303 5311 5318 5326 5329 5345 5374 5391 5395 5405 5419 5413 5410 5411 5416 5417 5421 5396 5394 5392 5404 5430 5419 5427 5429 5414 5401 5403 5413 5399 5421 5457 5462 5464 5434 5461 5460
5290 5288 5286 5283 5281 5279 5277 5279 5282 5292 5299 5307 5316 5321 5330 5344 5358 5375 5392 5399 5406 5411 5408 5404 5401 5395 5387 5383 5384 5387 5390 5408 5407 5419 5417 5410 5402 5394 5393 5395 5407 5444 5449 5440 5432 5442 5451
5291 5287 5285 5281 5278 5276 5275 5277 5281 5289 5297 5306 5311 5319 5326 5339 5354 5365 5381 5391 5403 5414 5406 5395 5405 5400 5399 5385 5369 5374 5384 5376 5399 5394 5416 5386 5404 5389 5402 5407 5425 5433 5433 5431 5430 5436 5442